Weather reports worldwide

Advertisment
Gelbelsee, Germany (10777): temperature & dewpoint: 12.10.2018 03:00:00 - 18.10.2018 03:00:00 (CEST)Gelbelsee, Germany (10777): temperature 5cm & temperature -5cm: 12.10.2018 03:00:00 - 18.10.2018 03:00:00 (CEST)Gelbelsee, Germany (10777): temperature -20cm & temperature -100cm: 12.10.2018 03:00:00 - 18.10.2018 03:00:00 (CEST)Gelbelsee, Germany (10777): wind speed & gusts: 12.10.2018 03:00:00 - 18.10.2018 03:00:00 (CEST)Gelbelsee, Germany (10777): wind direction: 12.10.2018 03:00:00 - 18.10.2018 03:00:00 (CEST)Gelbelsee, Germany (10777): reduced air pressure: 12.10.2018 03:00:00 - 18.10.2018 03:00:00 (CEST)Gelbelsee, Germany (10777): visibility: 12.10.2018 03:00:00 - 18.10.2018 03:00:00 (CEST)Gelbelsee, Germany (10777): sunshine duration: 12.10.2018 03:00:00 - 18.10.2018 03:00:00 (CEST)Gelbelsee, Germany (10777): precipitation: 12.10.2018 03:00:00 - 18.10.2018 03:00:00 (CEST)
Date & Time tt [°C] td [°C] tt 5cm [°C] tt -5cm [°C] tt -20cm [°C] tt -100cm [°C] ff [km/h] ff [kn] fx [km/h] fx [kn] dd ppp [hPa] vv [km] sd [min] rr [mm]
18.10.2018 03:00:00 10,5 8,5 4,9 9,4 13,1 14,0 5 3 6 4 N 1019,7 - 0 0,0
18.10.2018 02:00:00 10,5 8,5 5,8 9,7 13,4 14,0 5 3 8 4 N 1019,8 - 0 0,0
18.10.2018 01:00:00 10,3 8,3 5,3 10,1 13,6 14,0 5 3 8 4 N 1019,9 - 0 0,0
18.10.2018 00:00:00 10,8 8,3 5,5 10,6 13,9 14,0 4 2 6 3 N 1019,9 - 0 0,0
17.10.2018 23:00:00 11,4 8,8 6,0 11,1 14,2 14,0 4 2 4 2 N 1019,9 - 0 0,0
17.10.2018 22:00:00 12,5 9,4 6,2 11,7 14,4 14,0 3 2 6 3 NNE 1019,5 - 0 0,0
17.10.2018 21:00:00 13,2 9,1 6,8 12,5 14,7 14,0 3 2 5 3 ENE 1019,0 - 0 0,0
17.10.2018 20:00:00 13,7 8,8 7,3 13,5 14,9 14,0 5 3 8 4 E 1018,7 - 0 0,0
17.10.2018 19:00:00 15,6 9,0 9,4 14,9 14,9 14,0 5 3 6 3 E 1018,0 - 2 0,0
17.10.2018 18:00:00 18,0 8,5 15,9 16,6 14,8 14,0 6 3 10 6 E 1017,2 0,2 60 0,0
17.10.2018 17:00:00 18,9 7,8 19,5 17,5 14,5 14,1 8 4 14 7 E 1017,1 0,4 60 0,0
17.10.2018 16:00:00 19,3 8,1 21,7 17,8 14,0 14,1 8 5 15 8 E 1017,0 0,1 60 0,0
17.10.2018 15:00:00 19,6 7,9 23,1 17,6 13,5 14,1 9 5 14 7 E 1017,1 1,6 60 0,0
17.10.2018 14:00:00 18,9 8,2 23,2 17,0 13,0 14,1 6 3 12 7 ENE 1017,8 26 60 0,0
17.10.2018 13:00:00 17,5 8,4 22,3 16,1 12,5 14,0 6 3 11 6 ENE 1018,5 24 60 0,0
17.10.2018 12:00:00 16,9 8,9 20,4 14,5 12,2 14,0 5 3 10 5 SE 1019,1 19 60 0,0
17.10.2018 11:00:00 14,3 8,7 18,0 12,4 12,0 14,1 5 3 7 4 ESE 1019,8 15 60 0,0
17.10.2018 10:00:00 12,5 8,0 14,0 10,2 12,1 14,1 5 3 6 3 SSE 1020,0 12 60 0,0
17.10.2018 09:00:00 10,2 6,7 9,4 8,5 12,3 14,1 0 0 4 2 N 1020,3 9 44 0,0
17.10.2018 08:00:00 7,1 5,9 3,2 8,1 12,5 14,1 3 2 4 2 N 1021,0 13 0 0,0
17.10.2018 07:00:00 7,5 6,1 3,2 8,4 12,7 14,1 3 1 4 2 NNW 1020,6 20 0 0,0
17.10.2018 06:00:00 7,8 6,1 3,3 8,8 12,9 14,1 4 2 6 3 NNE 1020,3 20 0 0,0
17.10.2018 05:00:00 8,5 6,1 3,7 9,2 13,1 14,1 0 0 4 2 N 1020,3 24 0 0,0
17.10.2018 04:00:00 11,6 7,2 5,6 9,6 13,3 14,1 4 2 5 3 S 1019,5 29 0 0,0
17.10.2018 03:00:00 10,0 7,1 4,9 10,1 13,5 14,1 0 0 6 3 N 1020,1 29 0 0,0
17.10.2018 02:00:00 10,5 6,7 6,0 10,6 13,7 14,1 2 1 5 3 NE 1020,2 28 0 0,0
17.10.2018 01:00:00 11,0 7,1 6,7 11,1 14,0 14,1 2 1 4 2 WNW 1020,1 33 0 0,0
17.10.2018 00:00:00 13,2 7,2 8,9 11,6 14,2 14,1 4 2 6 3 WNW 1019,7 36 0 0,0
16.10.2018 23:00:00 12,2 7,2 9,2 12,0 14,5 14,1 5 3 6 4 SE 1020,2 34 0 0,0
16.10.2018 22:00:00 12,4 7,2 7,3 12,3 14,7 14,1 0 0 5 3 N 1020,0 36 0 0,0
16.10.2018 21:00:00 13,7 7,4 7,9 13,1 14,9 14,1 3 2 5 3 NNW 1019,5 39 0 0,0
16.10.2018 20:00:00 14,4 7,9 8,7 14,1 15,1 14,1 0 0 5 3 N 1019,3 39 0 0,0
16.10.2018 19:00:00 16,9 7,4 13,2 15,5 15,1 14,1 5 3 6 3 SW 1018,5 41 8 0,0
16.10.2018 18:00:00 18,6 7,5 15,7 17,1 14,9 14,1 5 3 9 5 WSW 1017,8 41 38 0,0
16.10.2018 17:00:00 20,0 6,8 20,2 18,0 14,6 14,1 7 4 12 6 SSW 1017,6 40 60 0,0
16.10.2018 16:00:00 20,0 6,9 21,4 18,1 14,1 14,1 8 4 14 8 SSW 1017,5 35 60 0,0
16.10.2018 15:00:00 20,0 7,1 24,0 17,9 13,6 14,1 9 5 14 7 SSW 1017,5 39 60 0,0
16.10.2018 14:00:00 20,1 8,1 24,3 17,4 13,1 14,1 6 3 13 7 SSW 1017,6 38 60 0,0
16.10.2018 13:00:00 18,5 7,9 23,0 16,5 12,6 14,1 5 3 11 6 SSE 1018,2 31 60 0,0
16.10.2018 12:00:00 17,4 7,7 20,7 14,7 12,2 14,1 4 2 8 4 S 1018,5 40 60 0,0
16.10.2018 11:00:00 15,3 7,3 18,9 12,5 12,0 14,1 4 2 7 4 SSW 1018,7 34 60 0,0
16.10.2018 10:00:00 13,0 6,9 14,6 10,1 12,0 14,1 5 3 7 4 S 1019,1 34 60 0,0
16.10.2018 09:00:00 10,1 6,0 9,8 8,4 12,2 14,1 0 0 5 3 N 1019,6 31 52 0,0
16.10.2018 08:00:00 7,6 6,0 2,9 7,9 12,4 14,1 3 2 4 2 NNW 1019,6 28 0 0,0
16.10.2018 07:00:00 8,2 6,1 2,9 8,2 12,7 14,1 0 0 4 2 N 1019,3 29 0 0,0
16.10.2018 06:00:00 8,7 6,4 4,1 8,4 12,9 14,1 3 1 6 3 N 1018,8 32 0 0,0
16.10.2018 05:00:00 9,5 6,7 3,4 8,8 13,1 14,1 4 2 7 4 NNE 1018,2 32 0 0,0
16.10.2018 04:00:00 9,5 6,7 4,4 9,1 13,4 14,1 5 3 7 4 N 1017,8 35 0 0,0
16.10.2018 03:00:00 10,2 7,1 4,1 9,5 13,6 14,1 4 2 7 4 NNE 1017,6 37 0 0,0
16.10.2018 02:00:00 10,1 7,0 4,4 10,0 13,9 14,1 5 3 6 3 N 1017,7 37 0 0,0
16.10.2018 01:00:00 9,6 6,6 4,6 10,5 14,1 14,1 4 2 8 4 NNW 1017,5 41 0 0,0
16.10.2018 00:00:00 11,4 7,0 5,1 10,9 14,4 14,1 5 3 8 4 NNE 1016,9 42 0 0,0
15.10.2018 23:00:00 12,9 7,3 6,4 11,5 14,7 14,1 5 3 8 4 NE 1016,4 42 0 0,0
15.10.2018 22:00:00 13,7 7,4 6,4 12,3 15,0 14,1 5 3 9 5 NE 1016,0 47 0 0,0
15.10.2018 21:00:00 13,9 7,4 8,5 13,2 15,2 14,1 5 3 9 5 NE 1015,9 51 0 0,0
15.10.2018 20:00:00 14,5 7,3 9,2 14,3 15,4 14,1 6 3 8 5 NNE 1015,8 51 0 0,0
15.10.2018 19:00:00 16,6 7,2 12,4 15,8 15,5 14,1 5 3 15 8 ENE 1014,9 57 10 0,0
15.10.2018 18:00:00 19,3 6,8 17,6 17,3 15,3 14,1 9 5 16 9 E 1013,9 41 60 0,0
15.10.2018 17:00:00 20,9 5,2 21,3 18,1 15,0 14,1 9 5 16 9 ESE 1013,5 64 60 0,0
15.10.2018 16:00:00 20,8 5,9 23,0 18,4 14,6 14,1 11 6 18 10 SE 1013,5 61 60 0,0
15.10.2018 15:00:00 20,3 5,1 23,8 18,3 14,1 14,1 14 8 21 11 ESE 1013,7 37 60 0,0
15.10.2018 14:00:00 20,1 6,4 24,2 17,7 13,6 14,1 9 5 17 9 E 1014,0 41 60 0,0
15.10.2018 13:00:00 19,4 6,2 23,7 16,7 13,1 14,1 9 5 14 8 ESE 1014,3 4,8 60 0,0
15.10.2018 12:00:00 17,7 6,5 22,0 15,0 12,8 14,1 7 4 14 8 E 1014,9 62 60 0,0
15.10.2018 11:00:00 14,9 6,0 18,1 12,9 12,7 14,1 8 4 16 9 ESE 1015,7 53 60 0,0
15.10.2018 10:00:00 13,4 5,7 15,1 10,9 12,7 14,1 11 6 19 10 ESE 1015,9 40 60 0,0
15.10.2018 09:00:00 11,3 5,3 11,0 9,5 12,9 14,1 8 5 13 7 ESE 1016,1 47 54 0,0
15.10.2018 08:00:00 10,2 5,2 5,9 9,2 13,1 14,1 6 3 14 8 ESE 1016,0 47 0 0,0
15.10.2018 07:00:00 10,2 5,3 6,8 9,5 13,3 14,1 9 5 17 9 ESE 1015,6 49 0 0,0
15.10.2018 06:00:00 10,4 5,4 7,8 9,6 13,5 14,1 11 6 17 9 E 1015,6 52 0 0,0
15.10.2018 05:00:00 10,8 5,9 4,9 10,0 13,7 14,1 4 2 11 6 ESE 1015,2 49 0 0,0
15.10.2018 04:00:00 11,0 5,9 6,4 10,5 13,9 14,1 7 4 13 7 ESE 1014,9 51 0 0,0
15.10.2018 03:00:00 12,1 6,1 9,0 11,0 14,1 14,1 10 6 16 9 SE 1014,7 49 0 0,0
15.10.2018 02:00:00 12,7 6,2 9,1 11,4 14,4 14,1 10 5 14 8 SE 1014,4 59 0 0,0
15.10.2018 01:00:00 13,8 6,5 10,3 11,9 14,6 14,1 10 6 17 9 ESE 1013,7 53 0 0,0
15.10.2018 00:00:00 14,5 6,7 9,6 12,4 14,8 14,1 7 4 15 8 ESE 1013,4 52 0 0,0
14.10.2018 23:00:00 15,4 6,9 11,6 13,0 15,0 14,1 9 5 17 9 ESE 1013,1 44 0 0,0
14.10.2018 22:00:00 16,6 7,1 12,9 13,5 15,3 14,1 10 5 17 9 ESE 1012,8 47 0 0,0
14.10.2018 21:00:00 16,6 7,2 13,1 14,0 15,4 14,1 10 5 16 9 E 1013,0 46 0 0,0
14.10.2018 20:00:00 17,2 6,9 13,5 14,9 15,6 14,1 9 5 13 7 E 1012,9 43 0 0,0
14.10.2018 19:00:00 17,9 6,6 14,4 16,2 15,7 14,1 9 5 14 7 E 1012,8 46 14 0,0
14.10.2018 18:00:00 20,4 6,6 18,6 17,7 15,5 14,1 10 5 26 14 E 1012,2 47 60 0,0
14.10.2018 17:00:00 21,9 6,0 22,1 18,4 15,2 14,1 14 8 25 13 ESE 1012,0 43 60 0,0
14.10.2018 16:00:00 22,1 5,6 24,3 18,6 14,7 14,1 13 7 27 15 ESE 1012,2 2,7 60 0,0
14.10.2018 15:00:00 21,5 5,6 24,7 18,5 14,2 14,1 14 8 23 12 ESE 1012,5 49 60 0,0
14.10.2018 14:00:00 19,9 6,9 24,1 17,9 13,7 14,1 13 7 21 11 ESE 1013,5 37 60 0,0
14.10.2018 13:00:00 18,6 6,9 23,3 16,9 13,3 14,1 10 5 16 9 SE 1014,3 34 60 0,0
14.10.2018 12:00:00 16,7 6,7 20,9 15,2 13,0 14,1 11 6 17 9 ESE 1015,1 55 60 0,0
14.10.2018 11:00:00 15,2 7,0 18,7 13,2 12,9 14,1 10 5 17 9 SE 1015,9 29 60 0,0
14.10.2018 10:00:00 13,1 6,3 14,6 11,2 12,9 14,0 11 6 16 9 SE 1016,6 42 60 0,0
14.10.2018 09:00:00 11,0 6,0 11,0 10,0 13,1 14,0 10 5 13 7 ESE 1017,1 33 56 0,0
14.10.2018 08:00:00 9,8 6,2 7,0 9,7 13,2 14,0 7 4 13 7 ESE 1017,4 29 0 0,0
14.10.2018 07:00:00 10,2 6,3 8,0 9,9 13,4 14,0 11 6 16 9 ESE 1017,4 29 0 0,0
14.10.2018 06:00:00 10,4 6,5 8,0 10,2 13,6 14,0 9 5 15 8 SE 1017,7 30 0 0,0
14.10.2018 05:00:00 10,9 6,8 7,3 10,4 13,8 14,0 8 4 11 6 ESE 1017,6 30 0 0,0
14.10.2018 04:00:00 11,4 7,0 8,6 10,8 14,0 14,0 9 5 16 9 ESE 1017,6 30 0 0,0
14.10.2018 03:00:00 11,8 7,2 8,0 10,9 14,2 14,0 9 5 12 7 ESE 1017,9 34 0 0,0
14.10.2018 02:00:00 12,3 7,6 9,0 11,4 14,5 14,0 6 3 12 6 E 1018,0 30 0 0,0
14.10.2018 01:00:00 13,3 8,2 9,3 11,8 14,7 14,0 7 4 11 6 E 1018,1 32 0 0,0
14.10.2018 00:00:00 13,9 8,4 9,6 12,2 14,9 14,0 5 3 14 8 E 1018,1 33 0 0,0
13.10.2018 23:00:00 13,8 8,3 10,9 12,6 15,2 14,0 10 5 13 7 E 1018,4 38 0 0,0
13.10.2018 22:00:00 14,5 8,6 8,4 13,3 15,5 14,0 6 3 11 6 ENE 1018,7 40 0 0,0
13.10.2018 21:00:00 15,5 8,7 9,4 14,3 15,7 14,0 6 3 16 8 NE 1018,8 43 0 0,0
13.10.2018 20:00:00 16,9 8,0 13,9 15,3 15,9 14,0 10 5 19 10 E 1018,9 44 0 0,0
13.10.2018 19:00:00 17,5 7,2 14,2 16,4 15,9 14,0 10 5 16 9 E 1019,1 52 18 0,0
13.10.2018 18:00:00 19,9 6,7 18,5 17,8 15,8 14,1 11 6 26 14 E 1018,8 70 60 0,0
13.10.2018 17:00:00 21,3 5,2 21,8 18,5 15,5 14,0 18 10 31 17 E 1018,8 45 60 0,0
13.10.2018 16:00:00 21,7 5,4 23,8 18,9 15,1 14,0 16 8 29 16 E 1019,4 40 60 0,0
13.10.2018 15:00:00 21,3 7,7 24,2 18,9 14,6 14,0 18 10 27 15 E 1020,0 50 60 0,0
13.10.2018 14:00:00 20,9 8,7 24,6 18,4 14,1 14,0 14 8 22 12 E 1020,8 47 60 0,0
13.10.2018 13:00:00 20,0 9,6 23,9 17,6 13,6 14,0 14 7 24 13 E 1021,9 39 60 0,0
13.10.2018 12:00:00 19,0 9,9 22,6 15,9 13,3 14,0 11 6 23 13 E 1022,9 27 60 0,0
13.10.2018 11:00:00 16,8 9,3 19,3 14,1 13,2 14,0 16 8 22 12 E 1023,8 32 60 0,0
13.10.2018 10:00:00 15,5 9,9 16,7 12,0 13,1 14,0 10 6 16 9 E 1024,6 25 60 0,0
13.10.2018 09:00:00 13,0 9,0 12,7 10,4 13,3 14,0 9 5 13 7 E 1025,2 21 57 0,0
13.10.2018 08:00:00 11,1 8,6 7,3 9,8 13,5 14,0 6 3 9 5 E 1025,4 17 0 0,0
13.10.2018 07:00:00 12,3 9,4 5,5 10,1 13,6 14,0 3 2 8 5 ENE 1025,3 19 0 0,0
13.10.2018 06:00:00 13,0 9,1 9,0 10,5 13,8 14,0 8 4 14 8 ESE 1025,1 20 0 0,0
13.10.2018 05:00:00 13,0 9,4 7,5 10,5 14,1 14,0 6 3 8 5 E 1025,1 24 0 0,0
13.10.2018 04:00:00 12,8 9,7 6,2 10,8 14,3 14,0 5 3 8 5 ESE 1025,0 21 0 0,0
13.10.2018 03:00:00 13,5 10,5 6,9 11,2 14,6 14,0 5 3 7 4 ESE 1025,1 22 0 0,0
13.10.2018 02:00:00 13,3 10,8 7,1 11,7 14,9 14,0 3 2 7 4 ESE 1025,3 20 0 0,0
13.10.2018 01:00:00 14,1 10,5 7,6 12,2 15,2 14,0 5 3 8 4 ESE 1025,2 22 0 0,0
13.10.2018 00:00:00 14,7 10,5 8,4 12,7 15,5 14,0 5 3 8 5 ESE 1025,4 26 0 0,0
12.10.2018 23:00:00 14,6 10,2 8,6 13,4 15,7 14,0 5 3 10 5 E 1025,5 32 0 0,0
12.10.2018 22:00:00 14,5 10,4 8,7 14,1 16,0 14,0 4 2 6 3 NE 1025,5 38 0 0,0
12.10.2018 21:00:00 15,2 10,9 9,4 15,0 16,3 14,0 2 1 5 3 ENE 1025,3 39 0 0,0
12.10.2018 20:00:00 16,9 11,0 10,6 16,1 16,4 14,0 3 1 5 3 ENE 1024,5 50 0 0,0
12.10.2018 19:00:00 18,5 10,6 13,0 17,7 16,5 14,0 4 2 9 5 E 1023,8 42 18 0,0
12.10.2018 18:00:00 21,3 10,2 20,0 19,3 16,3 14,0 7 4 11 6 E 1022,8 46 60 0,0
12.10.2018 17:00:00 22,3 9,7 23,6 20,0 15,9 14,0 7 4 11 6 E 1022,6 54 60 0,0
12.10.2018 16:00:00 23,2 9,6 25,9 20,2 15,5 14,0 4 2 14 7 SW 1022,6 43 60 0,0
12.10.2018 15:00:00 21,9 8,5 25,9 20,1 14,9 14,0 9 5 18 10 SE 1022,7 28 60 0,0
12.10.2018 14:00:00 21,8 10,3 25,7 19,8 14,4 14,0 10 6 16 9 SSE 1022,8 31 60 0,0
12.10.2018 13:00:00 21,5 9,4 26,0 18,9 13,9 14,0 7 4 13 7 SE 1023,4 39 60 0,0
12.10.2018 12:00:00 20,7 9,5 25,5 17,0 13,5 14,0 3 2 11 6 WSW 1023,6 37 60 0,0
12.10.2018 11:00:00 17,9 9,5 22,0 14,8 13,3 14,0 6 3 11 6 SW 1023,9 49 60 0,0
12.10.2018 10:00:00 15,7 8,1 17,9 12,5 13,3 14,0 5 3 8 4 SE 1023,7 34 60 0,0
12.10.2018 09:00:00 13,4 6,6 13,3 11,0 13,5 14,0 5 3 7 4 SE 1023,6 42 58 0,0
12.10.2018 08:00:00 11,3 6,4 6,5 10,6 13,7 14,0 3 2 4 2 ESE 1023,3 43 0 0,0
12.10.2018 07:00:00 11,3 6,4 6,5 11,2 13,8 14,0 2 1 7 4 ENE 1022,4 37 0 0,0
12.10.2018 06:00:00 12,8 7,0 7,3 12,1 14,0 14,0 4 2 14 8 SE 1021,3 45 0 0,0
12.10.2018 05:00:00 13,7 7,0 12,7 12,8 14,0 14,0 12 7 19 11 SW 1020,7 44 0 0,0
12.10.2018 04:00:00 14,1 6,4 12,8 13,0 14,1 14,0 7 4 12 7 E 1019,7 45 0 0,0
12.10.2018 03:00:00 13,9 7,3 12,5 13,2 14,2 14,0 5 3 9 5 N 1019,6 47 0 0,0

tt = temperature
td = dewpoint
tt 5cm = temperature 5cm
tt -5cm = temperature -5cm
tt -20cm = temperature -20cm
tt -100cm = temperature -100cm
ff = wind speed
fx = gusts
dd = wind direction
ppp = reduced air pressure
vv = visibility
sd = sunshine duration
rr = precipitation

Next stations